Millenium Air

Millenium Air Since 1998



 METAR AND TAF INFORMATION
METAR FOR SCTN
ADDS - METARS form results

(1748 UTC 29 May 2020)
Data provider http://aviationweather.gov/metar/data/
 
METAR text: SCTN 291700Z 15008KT 120V180 CAVOK 11/03 Q1025
Conditions at: SCTN (CHAITEN , CL) observed 1700 UTC 29 May 2020
Temperature: 11.0°C (52°F)
Dewpoint: 3.0°C (37°F) [RH = 58%]
Pressure (altimeter): 30.27 inches Hg (1025.0 mb)
Winds: from the SSE (150 degrees) at 9 MPH (8 knots; 4.1 m/s)
Visibility: 6 or more miles (10+ km)
Ceiling: ceiling and visibility are OK
Clouds: unknown
Weather: no significant weather observed at this time

 AIRPORT MAP

 RUNWAY INFORMATION
Runway 13 Runway length 4670 ft Runway width 65 ft
Runway elevation 0 ft Runway displaced threshold 105 ft Runway heading 137
Runway 31 Runway length 4670 ft Runway width 65 ft
Runway elevation 0 ft Runway displaced threshold 0 ft Runway heading 317

 AIRPORT FREQUENCIES
Type INFO Name INFO Frequency 126.7 MHZ

 AIRPORT NEAR NAVIGATION AIDS
Type NDB Name Chaiten Frequency 234 KHZ